www.pogodaiklimat.ru

ПОГОДА в Хендерсоне, KY

  • Прогноз погоды в Хендерсоне
  • Монитор погоды в Хендерсоне
  • Климат в Хендерсоне

АРХИВ ПОГОДЫ в Хендерсоне

Время (UTC), дата Ветер
(напр.,м/с)
 
Видим.   Явления Облачность Т
(С)
Тd
(С)
f
(%)
Тe
(С)
Тes
(С)
Комфортность

P
(гПа)

Po
(гПа)
Тmin
(С)
Tmax
(С)
R
(мм)
SD
(см)
05:56 25.03 С  7
{8} 
11 км  дождь  8/8 510 м  +12.8  +11.1  89  +10  +10    1015.5  1000.4         
06:24 25.03 СВ  11 км  гроза со слабым дождем  8/8 450 м  +12.0  +11.0  94  +10  +10      999.8         
06:31 25.03 В  16 км  слабый дождь  2/2 450 м  +12.0  +11.0  94  +10  +10      999.4         
06:56 25.03   16 км    8/8 1650 м  +11.7  +10.6  93  +11  +11    1014.5  999.4         
07:56 25.03 В  16 км    2/2 1170 м  +10.6  +10.0  96  +9  +9    1013.7  998.4      5.8   
08:56 25.03   6 км  дымка  10/10 1200 м  +10.6  +10.0  96  +10  +10    1013.7  998.4         
09:53 25.03 СЗ  3 км  дымка  8/8 960 м  +9.0  +9.0  100  +7  +7      999.1         
09:56 25.03 С  3 км  дымка  8/8 90 м  +9.4  +8.9  97  +6  +6    1014.5  999.4         
10:02 25.03 нст  8 км  дымка  8/8 90 м  +11.0  +10.0  94  +10  +10      999.4         
11:10 25.03 СЗ  16 км    10/10 150 м  +11.0  +10.0  94  +9  +9      1000.1         
11:56 25.03 СЗ  8 км  дымка  10/10 150 м  +10.6  +10.0  96  +8  +8    1016.2  1000.8         
12:56 25.03 С  14 км    10/10 150 м  +10.6  +9.4  92  +8  +8    1016.5  1001.1         
13:48 25.03 С  3 км  дымка  10/10 150 м  +10.0  +9.0  93  +7  +7      1001.8         
14:10 25.03 С  6 км  дымка  10/10 90 м  +10.0  +9.0  93  +7  +7      1002.1         
14:56 25.03 С  16 км    10/10 150 м  +10.0  +8.9  93  +7  +7    1018.1  1002.8         
15:04 25.03 С  16 км    10/10 210 м  +10.0  +9.0  93  +7  +7      1002.8         
15:56 25.03 С  16 км    10/10 270 м  +10.6  +8.3  86  +8  +8    1018.6  1003.1         
16:46 25.03 нст  16 км    10/10 330 м  +11.0  +8.0  82  +9  +9      1003.8         
16:56 25.03 С  16 км    10/10 330 м  +10.6  +8.3  86  +8  +8    1019.1  1003.8  +10.0  +11.1     
17:56 25.03 С  16 км    10/10 390 м  +10.6  +7.8  83  +8  +8    1019.7  1004.1         
18:56 25.03 С  5
{10} 
14 км    10/10 390 м  +10.0  +7.2  83  +6  +6    1020.0  1004.5         
19:56 25.03 С  16 км    10/10 510 м  +11.1  +7.2  77  +8  +8    1020.5  1005.1         
20:56 25.03 С  4
{8} 
16 км    10/10 720 м  +10.6  +6.7  77  +8  +8    1021.3  1005.8         
21:56 25.03 С  16 км    10/10 720 м  +10.0  +6.1  77  +7  +7    1022.1  1006.5         
22:52 25.03 С  6
{8} 
16 км    10/10 780 м  +10.0  +6.0  76  +6  +6      1007.1         
22:56 25.03 С  16 км    10/10 780 м  +10.0  +5.6  74  +7  +7    1022.8  1007.1  +9.4  +11.1     
23:56 25.03 С  16 км    2/2 960 м  +9.4  +5.0  74  +7  +7    1023.3  1007.8         
00:56 26.03 СЗ  16 км    ясно  +8.3  +5.0  80  +7  +7    1024.4  1008.8         
01:56 26.03 С  16 км    ясно  +7.8  +4.4  79  +5  +5    1025.1  1009.5         
02:56 26.03 СВ  16 км    ясно  +6.7  +3.9  82  +4  +4    1025.5  1010.1         
03:56 26.03 СВ  16 км    ясно  +5.0  +3.3  89  +3  +3    1026.0  1010.5         
04:56 26.03 СВ  16 км    ясно  +6.1  +2.8  79  +2  +2    1026.4  1010.8  +5.0  +10.0     
05:56 26.03 СВ  16 км    ясно  +5.6  -1.7  59  +1  +1    1026.5  1011.1         
06:56 26.03 СВ  16 км    ясно  +4.4  -1.1  67  +1  +1    1026.9  1011.1         
07:56 26.03 С  16 км    ясно  +3.3  -2.8  64  -1  -1    1027.2  1011.5         
08:56 26.03 СВ  16 км    ясно  +2.8  -2.8  67  -2  -2    1027.9  1012.1         
09:56 26.03 СВ  16 км    ясно  +2.8  -3.9  61  -2  -2    1028.6  1012.8         
10:56 26.03 СВ  16 км    ясно  +2.2  -4.4  62  -2  -2    1029.0  1013.5  +2.2  +6.1     
11:56 26.03 СВ  16 км    ясно  +2.8  -4.4  59  -2  -2    1030.3  1014.8         
12:56 26.03 СВ  16 км    ясно  +4.4  -5.6  48  -0  0    1030.8  1015.1         
13:56 26.03 В  16 км    ясно  +5.6  -5.0  46  +1  +2    1031.1  1015.5         
14:56 26.03 СВ  16 км    ясно  +6.7  -4.4  45  +3  +6    1031.1  1015.5         
15:56 26.03 СВ  16 км    ясно  +7.8  -5.6  38  +5  +11    1031.0  1015.1         
16:56 26.03 СВ  16 км    ясно  +8.9  -6.1  34  +6  +11    1030.5  1014.8  +2.2  +9.4     
17:56 26.03 С  16 км    ясно  +10.0  -5.0  34  +7  +11    1030.1  1014.5         
18:56 26.03 СВ  16 км    ясно  +10.6  -5.6  32  +8  +13    1029.5  1013.8         
19:56 26.03 С  16 км    ясно  +10.6  -4.4  35  +8  +10    1029.3  1013.8         
20:56 26.03 С  16 км    ясно  +10.6  -5.0  33  +8  +13    1029.3  1013.5         

 

Местоположение метеостанции Henderson City-County Airport: широта 37.8167 долгота -87.6833 высота над уровнем моря 117 м.

В архиве по умолчанию представлена погода в Хендерсоне за последние 1-2 суток. Обновление информации о фактической погоде в базе происходит ежечасно! Архивные данные за месяц целиком и за предыдущие месяцы Вы можете получить, выбрав интересующий диапазон дат из раскрывающегося списка и нажав кнопку "Ввод!".

Внимание! Архив погоды МЕТАР в базе сайта хранится не более 60 дней. Нет смысла пытаться выбрать более раннюю дату.

Внимание! Время в таблицах - всемирное. Для получения местного времени необходимо прибавить поправку, которая в Хендерсоне равна -6 ч.

Ветер - указаны скорость ветра в м/с и направление, откуда дует ветер: С - северный, СВ - северо-восточный, В - восточный, ЮВ - юго-восточный, Ю - южный, ЮЗ - юго-западный, З - западный, СЗ - северо-западный.
Видимость - горизонтальная дальность видимости в метрах или километрах. При видимости от 1 до 10 км при отсутствии осадков обычно наблюдается дымка, при ухудшении видимости до 1 км и менее - туман. В сухую погоду видимость может ухудшаться дымом, пылью или мглою.
Атмосферные явления - указаны явления, наблюдавшиеся в указанный момент времени.
Облачность - указаны через наклонную черту верхняя и нижняя облачность в баллах и высота нижней границы облаков в метрах. Внимание: облачность, как и прочие метеорологические величины в США измеряются автоматическими метеостанциями. Указанные значения в баллах носят условный характер и показывают процент времени, в течение которого, в среднем, лазерный луч высотомера отражался от облаков обратно.
T - Температура воздуха - температура, измеренная на высоте 2 м над землей.
Td - Температура точки росы - температура, при понижении до которой содержащийся в воздухе водяной пар достигнет насыщения.
f - Относительная влажность воздуха - влажноcть воздуха, измеренная на высоте 2 м над землей.
Te - Эффективная температура - температура, которую ощущает одетый по сезону человек в тени. Характеристика душности погоды. При расчете учитывается влияние влажности воздуха и скорости ветра на теплоощущения человека.
Tes - Эффективная температура на солнце - температура, которую ощущает человек, с поправкой на солнечный нагрев. Характеристика знойности погоды. Зависит от высоты солнца над горизонтом, облачности и скорости ветра. Ночью, в пасмурную погоду, а также при ветре 12 м/с и более поправка равна нулю.
P - Атмосферное давление - приведенное к уровню моря атмосферное давление.
Po - Атмосферное давление - измеренное на уровне метеостанции атмосферное давление.
Tmin - Минимальная температура - минимум температуры воздуха на высоте 2 м над землей.
Tmax - Максимальная температура - максимум температуры воздуха на высоте 2 м над землей.
R - Количество осадков - Количество выпавших осадков за 3 или 6 часов, мм.
SD - Снежный покров - Высота снежного покрова, см.